| time (UTC) | temp C | wind direction | speed KPH | gust KPH | rain 1hr cm | rain 24hr cm | rain mn cm | humidity % | barometer mb |
| 20260505183957 | 27 | 138 | 11.3 | 19.3 | 0.00 | 0.00 | 0.00 | 48 | 1017.1 |
| 20260505183457 | 26 | 96 | 6.4 | 16.1 | 0.00 | 0.00 | 0.00 | 46 | 1017.3 |
| 20260505182457 | 26 | 254 | 9.7 | 25.7 | 0.00 | 0.00 | 0.00 | 48 | 1017.4 |
| 20260505181957 | 26 | 180 | 12.9 | 25.7 | 0.00 | 0.00 | 0.00 | 45 | 1017.4 |
| 20260505181457 | 26 | 213 | 9.7 | 20.9 | 0.00 | 0.00 | 0.00 | 46 | 1017.4 |
| 20260505180956 | 26 | 163 | 12.9 | 20.9 | 0.00 | 0.00 | 0.00 | 46 | 1017.5 |
| 20260505180458 | 26 | 188 | 9.7 | 17.7 | 0.00 | 0.00 | 0.00 | 47 | 1017.6 |
| 20260505180000 | 26 | 197 | 11.3 | 16.1 | 0.00 | 0.00 | 0.00 | 47 | 1017.6 |
| 20260505175458 | 26 | 200 | 8.0 | 17.7 | 0.00 | 0.00 | 0.00 | 47 | 1017.5 |
| 20260505174957 | 26 | 159 | 12.9 | 19.3 | 0.00 | 0.00 | 0.00 | 47 | 1017.5 |
| 20260505173957 | 26 | 211 | 8.0 | 17.7 | 0.00 | 0.00 | 0.00 | 50 | 1017.6 |
| 20260505173457 | 26 | 147 | 8.0 | 17.7 | 0.00 | 0.00 | 0.00 | 49 | 1017.6 |
| 20260505172957 | 26 | 170 | 12.9 | 17.7 | 0.00 | 0.00 | 0.00 | 49 | 1017.7 |
| 20260505172458 | 26 | 196 | 6.4 | 16.1 | 0.00 | 0.00 | 0.00 | 49 | 1017.6 |
| 20260505171957 | 26 | 180 | 11.3 | 22.5 | 0.00 | 0.00 | 0.00 | 52 | 1017.7 |
| 20260505171458 | 26 | 264 | 8.0 | 22.5 | 0.00 | 0.00 | 0.00 | 49 | 1017.8 |
| 20260505170958 | 26 | 157 | 12.9 | 20.9 | 0.00 | 0.00 | 0.00 | 48 | 1017.7 |
| 20260505170456 | 26 | 209 | 8.0 | 16.1 | 0.00 | 0.00 | 0.00 | 51 | 1017.9 |
| 20260505165959 | 26 | 181 | 11.3 | 16.1 | 0.00 | 0.00 | 0.00 | 50 | 1018.0 |
| 20260505165457 | 26 | 134 | 8.0 | 16.1 | 0.00 | 0.00 | 0.00 | 50 | 1017.9 |
| 20260505164956 | 26 | 165 | 8.0 | 16.1 | 0.00 | 0.00 | 0.00 | 50 | 1018.0 |
| 20260505164457 | 25 | 204 | 6.4 | 16.1 | 0.00 | 0.00 | 0.00 | 50 | 1018.1 |
| 20260505163957 | 25 | 253 | 8.0 | 19.3 | 0.00 | 0.00 | 0.00 | 51 | 1018.1 |
| 20260505162958 | 25 | 236 | 11.3 | 22.5 | 0.00 | 0.00 | 0.00 | 52 | 1018.2 |
| 20260505162457 | 25 | 224 | 3.2 | 17.7 | 0.00 | 0.00 | 0.00 | 54 | 1018.1 |
| 20260505161957 | 25 | 252 | 6.4 | 17.7 | 0.00 | 0.00 | 0.00 | 53 | 1018.2 |
| 20260505161457 | 25 | 225 | 9.7 | 19.3 | 0.00 | 0.00 | 0.00 | 53 | 1018.4 |
| 20260505160957 | 25 | 206 | 9.7 | 19.3 | 0.00 | 0.00 | 0.00 | 52 | 1018.4 |
| 20260505160457 | 25 | 223 | 9.7 | 17.7 | 0.00 | 0.00 | 0.00 | 53 | 1018.5 |
| 20260505152958 | 23 | 169 | 4.8 | 17.7 | 0.00 | 0.00 | 0.00 | 57 | 1018.7 |
| 20260505152457 | 23 | 204 | 6.4 | 17.7 | 0.00 | 0.00 | 0.00 | 60 | 1018.8 |
| 20260505151956 | 23 | 235 | 8.0 | 14.5 | 0.00 | 0.00 | 0.00 | 58 | 1018.8 |
| 20260505151456 | 23 | 271 | 4.8 | 14.5 | 0.00 | 0.00 | 0.00 | 59 | 1018.9 |
| 20260505150956 | 23 | 157 | 9.7 | 14.5 | 0.00 | 0.00 | 0.00 | 58 | 1019.0 |
| 20260505150457 | 22 | 207 | 4.8 | 12.9 | 0.00 | 0.00 | 0.00 | 60 | 1019.0 |
| 20260505140455 | 21 | 182 | 4.8 | 17.7 | 0.00 | 0.00 | 0.00 | 65 | 1018.9 |
| 20260505124457 | 17 | 231 | 6.4 | 16.1 | 0.00 | 0.00 | 0.00 | 71 | 1019.0 |
| 20260505123957 | 17 | 189 | 9.7 | 16.1 | 0.00 | 0.00 | 0.00 | 71 | 1018.9 |
| 20260505123457 | 17 | 222 | 4.8 | 14.5 | 0.00 | 0.00 | 0.00 | 73 | 1018.9 |
| 20260505122957 | 16 | 211 | 4.8 | 14.5 | 0.00 | 0.00 | 0.00 | 73 | 1018.9 |
| 20260505122457 | 16 | 241 | 4.8 | 11.3 | 0.00 | 0.00 | 0.00 | 76 | 1018.9 |
| 20260505121957 | 16 | 242 | 4.8 | 11.3 | 0.00 | 0.00 | 0.00 | 74 | 1018.8 |
| 20260505121457 | 16 | 213 | 3.2 | 8.0 | 0.00 | 0.00 | 0.00 | 76 | 1018.8 |
| 20260505120956 | 15 | 166 | 3.2 | 11.3 | 0.00 | 0.00 | 0.00 | 77 | 1018.8 |
| 20260505120456 | 15 | 191 | 4.8 | 11.3 | 0.00 | 0.00 | 0.00 | 77 | 1018.8 |
| 20260505120000 | 15 | 188 | 4.8 | 9.7 | 0.00 | 0.00 | 0.00 | 79 | 1018.8 |
| 20260505115456 | 14 | 174 | 3.2 | 8.0 | 0.00 | 0.00 | 0.00 | 79 | 1018.7 |
| 20260505114456 | 13 | 186 | 1.6 | 9.7 | 0.00 | 0.00 | 0.00 | 81 | 1018.8 |
| 20260505113957 | 13 | 199 | 4.8 | 9.7 | 0.00 | 0.00 | 0.00 | 81 | 1018.7 |
| 20260505113458 | 13 | 204 | 3.2 | 6.4 | 0.00 | 0.00 | 0.00 | 82 | 1018.7 |
| 20260505112957 | 12 | 194 | 3.2 | 4.8 | 0.00 | 0.00 | 0.00 | 83 | 1018.6 |
| 20260505112457 | 12 | 192 | 3.2 | 4.8 | 0.00 | 0.00 | 0.00 | 84 | 1018.6 |
| 20260505111957 | 12 | 192 | 1.6 | 3.2 | 0.00 | 0.00 | 0.00 | 84 | 1018.5 |
| 20260505111457 | 12 | 192 | 0.0 | 3.2 | 0.00 | 0.00 | 0.00 | 84 | 1018.5 |
| 20260505110957 | 12 | 192 | 1.6 | 3.2 | 0.00 | 0.00 | 0.00 | 84 | 1018.4 |
| 20260505110456 | 11 | 192 | 1.6 | 3.2 | 0.00 | 0.00 | 0.00 | 84 | 1018.3 |
| 20260505101956 | 12 | 67 | 0.0 | 3.2 | 0.00 | 0.00 | 0.00 | 81 | 1017.7 |
| 20260505101456 | 12 | 67 | 1.6 | 3.2 | 0.00 | 0.00 | 0.00 | 81 | 1017.6 |
| 20260505100957 | 12 | 67 | 1.6 | 3.2 | 0.00 | 0.00 | 0.00 | 81 | 1017.6 |
| 20260505100455 | 12 | 67 | 1.6 | 3.2 | 0.00 | 0.00 | 0.00 | 81 | 1017.7 |
| 20260505095958 | 12 | 67 | 1.6 | 4.8 | 0.00 | 0.00 | 0.00 | 81 | 1017.6 |
| 20260505095455 | 12 | 205 | 1.6 | 4.8 | 0.00 | 0.00 | 0.00 | 80 | 1017.6 |
| 20260505094955 | 12 | 212 | 1.6 | 3.2 | 0.00 | 0.00 | 0.00 | 80 | 1017.6 |
| 20260505094456 | 12 | 212 | 1.6 | 3.2 | 0.00 | 0.00 | 0.00 | 80 | 1017.6 |
| 20260505093957 | 12 | 212 | 1.6 | 4.8 | 0.00 | 0.00 | 0.00 | 80 | 1017.5 |
| 20260505093456 | 12 | 212 | 1.6 | 4.8 | 0.00 | 0.00 | 0.00 | 80 | 1017.5 |
| 20260505092955 | 12 | 212 | 3.2 | 3.2 | 0.00 | 0.00 | 0.00 | 80 | 1017.5 |
| 20260505092455 | 12 | 212 | 3.2 | 3.2 | 0.00 | 0.00 | 0.00 | 80 | 1017.5 |
| 20260505091455 | 12 | 212 | 1.6 | 3.2 | 0.00 | 0.00 | 0.00 | 79 | 1017.4 |
| 20260505085958 | 13 | 212 | 1.6 | 8.0 | 0.00 | 0.00 | 0.00 | 77 | 1017.3 |
| 20260505085456 | 13 | 212 | 1.6 | 8.0 | 0.00 | 0.00 | 0.00 | 77 | 1017.2 |
| 20260505084458 | 13 | 141 | 1.6 | 4.8 | 0.00 | 0.00 | 0.00 | 76 | 1017.1 |
| 20260505083956 | 13 | 141 | 3.2 | 4.8 | 0.00 | 0.00 | 0.00 | 76 | 1017.1 |
| 20260505083457 | 13 | 141 | 1.6 | 4.8 | 0.00 | 0.00 | 0.00 | 76 | 1017.1 |
| 20260505082956 | 13 | 141 | 3.2 | 4.8 | 0.00 | 0.00 | 0.00 | 76 | 1017.1 |
| 20260505082455 | 13 | 141 | 3.2 | 4.8 | 0.00 | 0.00 | 0.00 | 76 | 1017.1 |
| 20260505081956 | 13 | 141 | 3.2 | 4.8 | 0.00 | 0.00 | 0.00 | 75 | 1017.0 |
| 20260505081456 | 13 | 141 | 3.2 | 6.4 | 0.00 | 0.00 | 0.00 | 75 | 1017.0 |
| 20260505080955 | 13 | 150 | 4.8 | 6.4 | 0.00 | 0.00 | 0.00 | 75 | 1017.0 |
| 20260505080456 | 13 | 157 | 4.8 | 6.4 | 0.00 | 0.00 | 0.00 | 75 | 1017.0 |
| 20260505075959 | 13 | 178 | 3.2 | 6.4 | 0.00 | 0.00 | 0.00 | 75 | 1017.0 |
| 20260505074455 | 13 | 196 | 3.2 | 6.4 | 0.00 | 0.00 | 0.00 | 75 | 1016.8 |
| 20260505073955 | 13 | 182 | 4.8 | 6.4 | 0.00 | 0.00 | 0.00 | 75 | 1016.9 |
| 20260505073456 | 13 | 182 | 3.2 | 4.8 | 0.00 | 0.00 | 0.00 | 74 | 1017.0 |
| 20260505072957 | 13 | 163 | 4.8 | 6.4 | 0.00 | 0.00 | 0.00 | 74 | 1016.9 |
| 20260505072456 | 14 | 181 | 3.2 | 6.4 | 0.00 | 0.00 | 0.00 | 74 | 1016.9 |
| 20260505071956 | 14 | 171 | 3.2 | 4.8 | 0.00 | 0.00 | 0.00 | 73 | 1016.8 |
| 20260505070456 | 14 | 148 | 4.8 | 8.0 | 0.00 | 0.00 | 0.00 | 73 | 1016.8 |
| 20260505065959 | 14 | 162 | 4.8 | 8.0 | 0.00 | 0.00 | 0.00 | 73 | 1016.9 |
| 20260505065456 | 14 | 165 | 4.8 | 9.7 | 0.00 | 0.00 | 0.00 | 72 | 1016.9 |
| 20260505064958 | 14 | 162 | 6.4 | 9.7 | 0.00 | 0.00 | 0.00 | 72 | 1016.9 |
| 20260505063456 | 15 | 200 | 3.2 | 9.7 | 0.00 | 0.00 | 0.00 | 71 | 1016.7 |
| 20260505062957 | 15 | 146 | 3.2 | 9.7 | 0.00 | 0.00 | 0.00 | 71 | 1016.8 |
| 20260505061955 | 15 | 143 | 4.8 | 9.7 | 0.00 | 0.00 | 0.00 | 70 | 1016.8 |
| 20260505061456 | 15 | 149 | 4.8 | 9.7 | 0.00 | 0.00 | 0.00 | 70 | 1016.9 |
| 20260505055958 | 15 | 153 | 4.8 | 8.0 | 0.00 | 0.00 | 0.00 | 69 | 1016.9 |
| 20260505055456 | 15 | 155 | 3.2 | 8.0 | 0.00 | 0.00 | 0.00 | 69 | 1017.0 |
| 20260505054956 | 15 | 161 | 4.8 | 6.4 | 0.00 | 0.00 | 0.00 | 69 | 1017.1 |
| 20260505053957 | 15 | 166 | 4.8 | 9.7 | 0.00 | 0.00 | 0.00 | 68 | 1017.1 |
| 20260505053456 | 15 | 136 | 4.8 | 8.0 | 0.00 | 0.00 | 0.00 | 68 | 1017.1 |
| 20260505052956 | 16 | 207 | 3.2 | 8.0 | 0.00 | 0.00 | 0.00 | 68 | 1017.1 |
| 20260505052457 | 16 | 187 | 4.8 | 11.3 | 0.00 | 0.00 | 0.00 | 68 | 1017.1 |
| 20260505051956 | 16 | 196 | 4.8 | 11.3 | 0.00 | 0.00 | 0.00 | 68 | 1017.2 |
| 20260505051456 | 16 | 159 | 4.8 | 9.7 | 0.00 | 0.00 | 0.00 | 67 | 1017.2 |
| 20260505050956 | 16 | 214 | 4.8 | 12.9 | 0.00 | 0.00 | 0.00 | 67 | 1017.2 |
| 20260505041454 | 17 | 198 | 3.2 | 17.7 | 0.00 | 0.00 | 0.00 | 66 | 1017.2 |
| 20260505040955 | 17 | 190 | 4.8 | 17.7 | 0.00 | 0.00 | 0.00 | 66 | 1017.3 |
| 20260505040454 | 17 | 162 | 6.4 | 11.3 | 0.00 | 0.00 | 0.00 | 66 | 1017.1 |
| 20260505040005 | 17 | 241 | 6.4 | 11.3 | 0.00 | 0.00 | 0.00 | 66 | 1017.1 |
| 20260505035000 | 17 | 181 | 8.0 | 16.1 | 0.00 | 0.00 | 0.00 | 66 | 1017.3 |
| 20260505034459 | 17 | 170 | 8.0 | 12.9 | 0.00 | 0.00 | 0.00 | 65 | 1017.2 |
| 20260505033501 | 17 | 175 | 8.0 | 16.1 | 0.00 | 0.00 | 0.00 | 65 | 1017.1 |
| 20260505032959 | 17 | 175 | 8.0 | 16.1 | 0.00 | 0.00 | 0.00 | 65 | 1017.1 |
| 20260505032459 | 17 | 182 | 9.7 | 17.7 | 0.00 | 0.00 | 0.00 | 65 | 1017.1 |
| 20260505031959 | 17 | 194 | 6.4 | 12.9 | 0.00 | 0.00 | 0.00 | 64 | 1017.1 |
| 20260505031459 | 17 | 165 | 8.0 | 12.9 | 0.00 | 0.00 | 0.00 | 65 | 1017.1 |
| 20260505030500 | 17 | 194 | 4.8 | 16.1 | 0.00 | 0.00 | 0.00 | 64 | 1017.2 |
| 20260505030001 | 17 | 182 | 9.7 | 16.1 | 0.00 | 0.00 | 0.00 | 64 | 1017.1 |
| 20260505025458 | 17 | 207 | 9.7 | 17.7 | 0.00 | 0.00 | 0.00 | 64 | 1017.2 |
| 20260505024957 | 18 | 177 | 6.4 | 17.7 | 0.00 | 0.00 | 0.00 | 63 | 1017.1 |
| 20260505024457 | 18 | 194 | 11.3 | 17.7 | 0.00 | 0.00 | 0.00 | 63 | 1017.1 |
| 20260505023958 | 18 | 221 | 6.4 | 17.7 | 0.00 | 0.00 | 0.00 | 63 | 1017.0 |
| 20260505023458 | 18 | 204 | 8.0 | 16.1 | 0.00 | 0.00 | 0.00 | 63 | 1017.0 |
| 20260505022957 | 18 | 192 | 8.0 | 17.7 | 0.00 | 0.00 | 0.00 | 63 | 1017.0 |
| 20260505022458 | 18 | 223 | 8.0 | 17.7 | 0.00 | 0.00 | 0.00 | 63 | 1016.9 |
| 20260505021458 | 18 | 181 | 8.0 | 19.3 | 0.00 | 0.00 | 0.00 | 63 | 1016.9 |
| 20260505020458 | 18 | 206 | 6.4 | 19.3 | 0.00 | 0.00 | 0.00 | 63 | 1016.9 |
| 20260505020001 | 18 | 180 | 6.4 | 17.7 | 0.00 | 0.00 | 0.00 | 62 | 1016.8 |
| 20260505015458 | 19 | 162 | 6.4 | 16.1 | 0.00 | 0.00 | 0.00 | 62 | 1016.7 |
| 20260505014958 | 19 | 149 | 11.3 | 22.5 | 0.00 | 0.00 | 0.00 | 62 | 1016.7 |
| 20260505014457 | 19 | 141 | 8.0 | 17.7 | 0.00 | 0.00 | 0.00 | 62 | 1016.6 |
| 20260505013958 | 19 | 173 | 9.7 | 17.7 | 0.00 | 0.00 | 0.00 | 61 | 1016.6 |
| 20260505012958 | 20 | 132 | 11.3 | 19.3 | 0.00 | 0.00 | 0.00 | 61 | 1016.9 |
| 20260505012459 | 20 | 191 | 9.7 | 20.9 | 0.00 | 0.00 | 0.00 | 60 | 1016.3 |
| 20260505011503 | 20 | 167 | 8.0 | 17.7 | 0.00 | 0.00 | 0.00 | 60 | 1016.1 |
| 20260505010958 | 20 | 175 | 9.7 | 19.3 | 0.00 | 0.00 | 0.00 | 59 | 1016.1 |
| 20260505010458 | 20 | 152 | 8.0 | 19.3 | 0.00 | 0.00 | 0.00 | 58 | 1016.1 |
| 20260505010000 | 20 | 162 | 12.9 | 25.7 | 0.00 | 0.00 | 0.00 | 58 | 1015.8 |
| 20260505004458 | 21 | 153 | 9.7 | 20.9 | 0.00 | 0.00 | 0.00 | 52 | 1015.6 |
| 20260505003958 | 21 | 158 | 11.3 | 20.9 | 0.00 | 0.00 | 0.00 | 50 | 1015.4 |
| 20260505003458 | 21 | 192 | 9.7 | 14.5 | 0.00 | 0.00 | 0.00 | 48 | 1015.3 |
| 20260505002958 | 21 | 146 | 4.8 | 12.9 | 0.00 | 0.00 | 0.00 | 47 | 1015.2 |
| 20260505002458 | 21 | 170 | 4.8 | 8.0 | 0.00 | 0.00 | 0.00 | 47 | 1015.2 |
| 20260505001958 | 21 | 227 | 6.4 | 9.7 | 0.00 | 0.00 | 0.00 | 47 | 1015.3 |
| 20260505001459 | 21 | 160 | 4.8 | 9.7 | 0.00 | 0.00 | 0.00 | 46 | 1015.3 |
| 20260505000957 | 22 | 145 | 4.8 | 8.0 | 0.00 | 0.00 | 0.00 | 46 | 1015.2 |
| 20260505000458 | 22 | 169 | 6.4 | 12.9 | 0.00 | 0.00 | 0.00 | 44 | 1015.2 |
| 20260505000002 | 22 | 161 | 6.4 | 12.9 | 0.00 | 0.00 | 0.00 | 44 | 1015.2 |
| 20260504235458 | 22 | 186 | 3.2 | 12.9 | 0.00 | 0.00 | 0.00 | 44 | 1015.2 |
| 20260504234958 | 22 | 177 | 6.4 | 12.9 | 0.00 | 0.00 | 0.00 | 42 | 1015.1 |
| 20260504234458 | 23 | 169 | 3.2 | 9.7 | 0.00 | 0.00 | 0.00 | 42 | 1015.0 |
| 20260504233957 | 23 | 182 | 4.8 | 9.7 | 0.00 | 0.00 | 0.00 | 41 | 1014.9 |
| 20260504233457 | 23 | 197 | 4.8 | 12.9 | 0.00 | 0.00 | 0.00 | 40 | 1014.8 |
| 20260504232958 | 23 | 175 | 6.4 | 11.3 | 0.00 | 0.00 | 0.00 | 40 | 1014.9 |
| 20260504232457 | 23 | 155 | 6.4 | 12.9 | 0.00 | 0.00 | 0.00 | 39 | 1014.7 |
| 20260504231457 | 23 | 206 | 4.8 | 9.7 | 0.00 | 0.00 | 0.00 | 40 | 1014.7 |
| 20260504230459 | 24 | 192 | 6.4 | 16.1 | 0.00 | 0.00 | 0.00 | 41 | 1014.8 |
| 20260504230000 | 24 | 182 | 8.0 | 16.1 | 0.00 | 0.00 | 0.00 | 38 | 1014.8 |
| 20260504225458 | 24 | 193 | 6.4 | 11.3 | 0.00 | 0.00 | 0.00 | 38 | 1014.7 |
| 20260504224958 | 25 | 173 | 6.4 | 12.9 | 0.00 | 0.00 | 0.00 | 40 | 1014.7 |
| 20260504223959 | 25 | 161 | 4.8 | 16.1 | 0.00 | 0.00 | 0.00 | 39 | 1014.8 |
| 20260504223457 | 25 | 168 | 8.0 | 19.3 | 0.00 | 0.00 | 0.00 | 38 | 1014.7 |
| 20260504222957 | 25 | 224 | 8.0 | 19.3 | 0.00 | 0.00 | 0.00 | 37 | 1014.8 |
| 20260504222459 | 25 | 180 | 11.3 | 19.3 | 0.00 | 0.00 | 0.00 | 37 | 1014.7 |
| 20260504221957 | 25 | 144 | 8.0 | 14.5 | 0.00 | 0.00 | 0.00 | 36 | 1014.6 |
| 20260504221458 | 25 | 178 | 8.0 | 17.7 | 0.00 | 0.00 | 0.00 | 37 | 1014.7 |
| 20260504220958 | 25 | 175 | 11.3 | 17.7 | 0.00 | 0.00 | 0.00 | 36 | 1014.8 |
| 20260504220459 | 26 | 172 | 6.4 | 17.7 | 0.00 | 0.00 | 0.00 | 36 | 1014.7 |
| 20260504220001 | 26 | 176 | 9.7 | 17.7 | 0.00 | 0.00 | 0.00 | 36 | 1014.8 |
| 20260504215458 | 26 | 145 | 9.7 | 16.1 | 0.00 | 0.00 | 0.00 | 37 | 1014.7 |
| 20260504214958 | 26 | 199 | 6.4 | 16.1 | 0.00 | 0.00 | 0.00 | 37 | 1014.7 |
| 20260504214459 | 26 | 202 | 6.4 | 16.1 | 0.00 | 0.00 | 0.00 | 35 | 1014.7 |
| 20260504213458 | 26 | 224 | 8.0 | 16.1 | 0.00 | 0.00 | 0.00 | 35 | 1014.8 |
| 20260504212958 | 26 | 175 | 11.3 | 24.1 | 0.00 | 0.00 | 0.00 | 35 | 1014.7 |
| 20260504212457 | 26 | 143 | 11.3 | 19.3 | 0.00 | 0.00 | 0.00 | 35 | 1014.8 |
| 20260504211958 | 26 | 163 | 12.9 | 19.3 | 0.00 | 0.00 | 0.00 | 34 | 1014.8 |
| 20260504210958 | 26 | 213 | 11.3 | 19.3 | 0.00 | 0.00 | 0.00 | 34 | 1014.8 |
| 20260504210459 | 26 | 225 | 9.7 | 19.3 | 0.00 | 0.00 | 0.00 | 33 | 1014.8 |
| 20260504210001 | 26 | 178 | 11.3 | 19.3 | 0.00 | 0.00 | 0.00 | 33 | 1014.8 |
| 20260504204957 | 26 | 180 | 8.0 | 17.7 | 0.00 | 0.00 | 0.00 | 34 | 1014.8 |
| 20260504204458 | 26 | 189 | 9.7 | 16.1 | 0.00 | 0.00 | 0.00 | 35 | 1014.8 |
| 20260504203957 | 26 | 159 | 8.0 | 17.7 | 0.00 | 0.00 | 0.00 | 34 | 1014.9 |
| 20260504203458 | 26 | 179 | 6.4 | 17.7 | 0.00 | 0.00 | 0.00 | 34 | 1014.9 |
| 20260504202958 | 26 | 143 | 8.0 | 24.1 | 0.00 | 0.00 | 0.00 | 33 | 1015.0 |
| 20260504201957 | 26 | 163 | 6.4 | 22.5 | 0.00 | 0.00 | 0.00 | 35 | 1015.1 |
| 20260504201457 | 26 | 186 | 11.3 | 22.5 | 0.00 | 0.00 | 0.00 | 37 | 1015.2 |
| 20260504200959 | 26 | 193 | 12.9 | 19.3 | 0.00 | 0.00 | 0.00 | 35 | 1015.3 |
| 20260504200458 | 26 | 230 | 9.7 | 16.1 | 0.00 | 0.00 | 0.00 | 36 | 1015.3 |
| 20260504200001 | 26 | 118 | 6.4 | 16.1 | 0.00 | 0.00 | 0.00 | 38 | 1015.2 |
| 20260504195458 | 26 | 192 | 9.7 | 19.3 | 0.00 | 0.00 | 0.00 | 34 | 1015.2 |
| 20260504194457 | 26 | 113 | 9.7 | 16.1 | 0.00 | 0.00 | 0.00 | 35 | 1015.3 |
| 20260504193957 | 26 | 228 | 6.4 | 19.3 | 0.00 | 0.00 | 0.00 | 34 | 1015.3 |
| 20260504193457 | 26 | 131 | 11.3 | 19.3 | 0.00 | 0.00 | 0.00 | 34 | 1015.3 |
| 20260504192958 | 26 | 200 | 8.0 | 17.7 | 0.00 | 0.00 | 0.00 | 34 | 1015.5 |
| 20260504192457 | 26 | 159 | 4.8 | 17.7 | 0.00 | 0.00 | 0.00 | 38 | 1015.5 |
| 20260504191958 | 26 | 187 | 11.3 | 22.5 | 0.00 | 0.00 | 0.00 | 34 | 1015.7 |
| 20260504191458 | 26 | 240 | 11.3 | 22.5 | 0.00 | 0.00 | 0.00 | 35 | 1015.8 |
| 20260504190458 | 26 | 283 | 11.3 | 20.9 | 0.00 | 0.00 | 0.00 | 32 | 1015.8 |
| 20260504185959 | 26 | 265 | 11.3 | 19.3 | 0.00 | 0.00 | 0.00 | 31 | 1015.7 |
| 20260504185456 | 26 | 237 | 6.4 | 24.1 | 0.00 | 0.00 | 0.00 | 34 | 1015.8 |
| 20260504184956 | 26 | 213 | 9.7 | 24.1 | 0.00 | 0.00 | 0.00 | 32 | 1015.8 |
| 20260504184457 | 26 | 259 | 4.8 | 20.9 | 0.00 | 0.00 | 0.00 | 32 | 1015.9 |